loading
DOY 203 | 2024-07-21T09:24:03Z
Showing default

RESURS P1, 39186

Orbit data source: Space-Track

RESURS P1, 39186 is a Commonwealth of Independent States-origin payload satellite in LEO that was launched on Tue, 25 Jun 2013 UTC via a Soyuz-2-1B launch vehicle from the Tyuratam Missile And Space Complex (TTMTR). Payloads include a variety of satellites, spacecraft, and rockets equipped with specific instruments for various scientific and technological missions. These include communications satellites like Starlink; space stations such as the ISS; scientific satellites like the Hubble; Earth observation satellites from companies like Planet Labs, Umbra, and HawkEye 360; GPS; miniature CubeSats for education and research; and military/defense satellites.

Loading next visibility...
Loading greatness...
RESURS P1 details
NORAD ID39186
COSPAR ID
2013-030A
Orbit
LEO
Last TLE update5 hours ago
Origin
Flag of CISTSSKBP? (CIS)
ManufacturerTSSKBP?
BusResurs P
MotorUnknown
Mass5,691 kg wet, ~5,600 kg dry
Launch date (UTC)
2013-06-25 (11 years ago)
Launch vehicle
Soyuz-2-1B
Launch site
Tyuratam Missile And Space Complex (TTMTR)
Object type
Payload
Rocket body
Debris
Radar Cross Section7.5 m², Large (>1 m²)
Predictive object data (real-time)
Latitude58.47672°
Longitude-125.88173°
Altitude354.019 km
Speed7.706 km/s
Apparent Right ascension12h 40m 29s
Apparent Declination14° 50' 45"
Sunlit
Object is in daylight
Predictive observer data (real-time)
Local Sidereal Time22:22:08
Azimuth322.193° NNW
Elevation-26.485°
Doppler factor1
Orbital elements
Apogee352.286 km
Perigee341.019 km
Semi-major axis6,724.79 km
Eccentricity0.0008377
Inclination97.0081°
RAAN253.4269°
Arg. of periapsis62.5085°
True anomaly297.61797°
Mean anomaly297.703°
Mean motion3.93573 °/min
BSTAR0.00044971
Period91.47 mins
Definitive object data (Epoch: 2024-07-21T04:34:17.885Z)
Latitude-0.0001°
Longitude-114.58876°
Altitude350.331 km
Speed7.7 km/s
True Right ascension16h 53m 42s
True Declination0° 00' 00"
Sunlit
Object was in full shadow at TLE epoch
TLE from 5 hours ago
0 RESURS P1
1 39186U 13030A   24203.19048479  .00062023  00000-0  44971-3 0  9998
2 39186  97.0081 253.4269 0008377  62.5085 297.7030 15.73194267620793
Epoch: 2024-07-21T04:34Z
No data available

RESURS P1 Visibility forecast

Observer location: 39.9160978°, -105.1181434

RESURS P1 is not visible in the next 10 days
Span
Click to sort rows by Start time (UTC) header in descending order
Start Az.
Max El. time (UTC)
Max El. Az.
Max El.
End time (UTC)
End Az.